Regional Weather Roundup
Issued by NWS Charleston, WV

Home | Current Version | Previous Version | Text Only | Print | Product List | Glossary Off
Versions: 1 2 3 4 5 6 7 8 9 10 11 12 13 14 15 16 17 18 19 20 21 22 23 24 25 26 27 28 29 30 31 32 33 34 35 36 37 38 39 40 41 42 43 44 45 46 47 48 49 50

000
ASUS41 KRLX 191310
RWRRLX
West Virginia Regional Weather Roundup
National Weather Service Charleston WV
900 AM EDT SUN OCT 19 2014

Note: "fair" indicates few or no clouds below 12,000 feet with no
significant weather and/or obstructions to visibility.

WVZ003-191400-
Northern Panhandle of West Virginia

CITY           SKY/WX    TMP DP  RH WIND       PRES   REMARKS
WHEELING       SUNNY     42  34  73 W7        30.16R
$$

WVZ009-191400-
Northwest West Virginia

CITY           SKY/WX    TMP DP  RH WIND       PRES   REMARKS
PARKERSBURG    PTSUNNY   44  38  79 NW5       30.22R
$$

WVZ006-191400-
Western West Virginia

CITY           SKY/WX    TMP DP  RH WIND       PRES   REMARKS
HUNTINGTON     CLOUDY    47  42  83 CALM      30.21R
$$

WVZ015-191400-
West Central West Virginia

CITY           SKY/WX    TMP DP  RH WIND       PRES   REMARKS
CHARLESTON     CLOUDY    47  42  83 NW5       30.20R
$$

WVZ022-031-191400-
North Central West Virginia

CITY           SKY/WX    TMP DP  RH WIND       PRES   REMARKS
CLARKSBURG     MOSUNNY   44  37  76 NW5       30.17R
MORGANTOWN     CLOUDY    45  31  58 W3        30.16R
$$

WVZ025-035-042-045-191400-
Southern West Virginia

CITY           SKY/WX    TMP DP  RH WIND       PRES   REMARKS
BECKLEY        CLOUDY    41  37  86 NW8       30.16R
LOGAN          CLOUDY    45  41  87 NW5       30.19R
BLUEFIELD      CLOUDY    42  37  82 VRB5      30.16R
LEWISBURG      CLOUDY    45  34  66 NW5G17    30.12R
$$

WVZ047-191400-
Northern Mountains of West Virginia

CITY           SKY/WX    TMP DP  RH WIND       PRES   REMARKS
ELKINS         CLOUDY    40  37  89 VRB5      30.15R
$$

WVZ052-191400-
Eastern Panhandle of West Virginia

CITY           SKY/WX    TMP DP  RH WIND       PRES   REMARKS
MARTINSBURG    PTSUNNY   46  28  49 NW8       30.09R
PETERSBURG     SUNNY    N/A N/A N/A NW9G16    30.12S
$$


USA.gov is the U.S. government's official web portal to all federal, state and local government web resources and services.